Zurück zum Katalog

SL-14 DEB

AktivPO
NORAD 26028·DEBRIS·🇷🇺 Russia

Gestartet Sep 28, 1991 von Plesetsk Cosmodrome

Loading…

Nächste Überflüge (nächste 24 Stunden)

TLE

AktuellSource: Space-Track

Epoche: Sep 14, 2026, 09:21 UTC

1 26028U 91068AP  26257.39026208  .00000029  00000-0  13277-3 0  9998
2 26028  82.6947 230.0675 0021128 328.9652 186.3520 12.45928557245103

Verfolge SL-14 DEB in Echtzeit mit AllMySat

Download on the App Store